User: anonymous   Login
Location: Unspecified
(0.0000°N, 0.0000°E)
Time: 01:51:04
(UTC+00:00)
Language:

ONEWEB-0257 - Orbit

View from above orbital plane
View from above orbital plane
View from above satellite
View from above satellite

Ground track
Ground track

The orbit is defined by the following mean orbital elements,

1 48975U          26145.53165797 +.00000000 +00000-0 +37179-3 0 00007
2 48975  87.9105 233.2692 0001898  96.5061 263.6286 13.16593938    06
Epoch (UTC): 25 May 2026 12:45:35
Eccentricity: 0.0001898
inclination: 87.9105°
perigee height: 1196 km
apogee height: 1199 km
right ascension of ascending node: 233.2692°
argument of perigee: 96.5061°
revolutions per day: 13.16593938
mean anomaly at epoch: 263.6286°

The dashed part of the orbit path shows where the satellite is in the earth's shadow,  

DLR